datetime,total release
1979-01-01,0.48
1979-01-02,0.48
1979-01-03,0.49
1979-01-04,0.48
1979-01-05,0.48
1979-01-06,0.48
1979-01-07,0.48
1979-01-08,0.48
1979-01-09,0.48
1979-01-10,0.48
1979-01-11,0.48
1979-01-12,0.48
1979-01-13,0.48
1979-01-14,0.48
1979-01-15,0.48
1979-01-16,0.48
1979-01-17,0.48
1979-01-18,0.48
1979-01-19,0.48
1979-01-20,0.48
1979-01-21,0.48
1979-01-22,0.48
1979-01-23,0.48
1979-01-24,0.48
1979-01-25,0.48
1979-01-26,0.48
1979-01-27,0.48
1979-01-28,0.48
1979-01-29,0.48
1979-01-30,0.48
1979-01-31,0.48
1979-02-01,0.48
1979-02-02,0.48
1979-02-03,0.48
1979-02-04,0.48
1979-02-05,0.48
1979-02-06,0.48
1979-02-07,0.48
1979-02-08,0.48
1979-02-09,0.48
1979-02-10,0.48
1979-02-11,0.48
1979-02-12,0.48
1979-02-13,0.48
1979-02-14,0.48
1979-02-15,0.48
1979-02-16,0.48
1979-02-17,0.48
1979-02-18,0.48
1979-02-19,0.48
1979-02-20,0.48
1979-02-21,0.49
1979-02-22,0.49
1979-02-23,0.49
1979-02-24,0.49
1979-02-25,0.49
1979-02-26,0.49
1979-02-27,0.49
1979-02-28,0.48
1979-03-01,0.48
1979-03-02,0.48
1979-03-03,0.48
1979-03-04,0.48
1979-03-05,0.48
1979-03-06,0.48
1979-03-07,0.48
1979-03-08,0.49
1979-03-09,0.49
1979-03-10,0.49
1979-03-11,0.49
1979-03-12,0.49
1979-03-13,0.49
1979-03-14,0.49
1979-03-15,0.48
1979-03-16,0.48
1979-03-17,0.48
1979-03-18,0.48
1979-03-19,0.48
1979-03-20,0.48
1979-03-21,0.49
1979-03-22,0.49
1979-03-23,0.49
1979-03-24,0.49
1979-03-25,0.49
1979-03-26,0.49
1979-03-27,0.49
1979-03-28,0.49
1979-03-29,0.49
1979-03-30,0.49
1979-03-31,0.48
1979-04-01,0.49
1979-04-02,0.49
1979-04-03,0.49
1979-04-04,0.49
1979-04-05,0.49
1979-04-06,0.49
1979-04-07,0.49
1979-04-08,0.49
1979-04-09,0.49
1979-04-10,0.49
1979-04-11,10.0
1979-04-12,12.0
1979-04-13,4.5
1979-04-14,4.5
1979-04-15,4.0
1979-04-16,12.0
1979-04-17,25.0
1979-04-18,35.0
1979-04-19,44.0
1979-04-20,44.0
1979-04-21,44.0
1979-04-22,42.0
1979-04-23,42.0
1979-04-24,45.0
1979-04-25,43.0
1979-04-26,48.0
1979-04-27,35.0
1979-04-28,31.0
1979-04-29,35.0
1979-04-30,35.0
1979-05-01,35.0
1979-05-02,33.0
1979-05-03,33.0
1979-05-04,32.0
1979-05-05,32.0
1979-05-06,31.0
1979-05-07,33.0
1979-05-08,37.0
1979-05-09,42.0
1979-05-10,39.0
1979-05-11,28.0
1979-05-12,28.0
1979-05-13,31.0
1979-05-14,32.0
1979-05-15,37.0
1979-05-16,37.0
1979-05-17,34.0
1979-05-18,45.0
1979-05-19,52.0
1979-05-20,55.0
1979-05-21,54.0
1979-05-22,56.0
1979-05-23,64.0
1979-05-24,75.0
1979-05-25,88.0
1979-05-26,93.0
1979-05-27,107.0
1979-05-28,107.0
1979-05-29,107.0
1979-05-30,105.0
1979-05-31,111.0
1979-06-01,128.0
1979-06-02,128.0
1979-06-03,116.0
1979-06-04,114.0
1979-06-05,122.0
1979-06-06,119.0
1979-06-07,125.0
1979-06-08,158.0
1979-06-09,236.0
1979-06-10,177.0
1979-06-11,163.0
1979-06-12,137.0
1979-06-13,130.0
1979-06-14,134.0
1979-06-15,137.0
1979-06-16,137.0
1979-06-17,134.0
1979-06-18,128.0
1979-06-19,117.0
1979-06-20,111.0
1979-06-21,106.0
1979-06-22,101.0
1979-06-23,104.0
1979-06-24,101.0
1979-06-25,99.0
1979-06-26,101.0
1979-06-27,101.0
1979-06-28,99.0
1979-06-29,96.0
1979-06-30,91.0
1979-07-01,83.0
1979-07-02,78.0
1979-07-03,70.0
1979-07-04,67.0
1979-07-05,61.0
1979-07-06,54.0
1979-07-07,56.0
1979-07-08,51.0
1979-07-09,48.0
1979-07-10,47.0
1979-07-11,45.0
1979-07-12,44.0
1979-07-13,39.0
1979-07-14,38.0
1979-07-15,37.0
1979-07-16,37.0
1979-07-17,39.0
1979-07-18,41.0
1979-07-19,39.0
1979-07-20,34.0
1979-07-21,28.0
1979-07-22,25.0
1979-07-23,22.0
1979-07-24,20.0
1979-07-25,20.0
1979-07-26,20.0
1979-07-27,17.0
1979-07-28,21.0
1979-07-29,20.0
1979-07-30,13.0
1979-07-31,17.0
1979-08-01,22.0
1979-08-02,24.0
1979-08-03,24.0
1979-08-04,24.0
1979-08-05,24.0
1979-08-06,27.0
1979-08-07,27.0
1979-08-08,28.0
1979-08-09,28.0
1979-08-10,28.0
1979-08-11,28.0
1979-08-12,23.0
1979-08-13,20.0
1979-08-14,20.0
1979-08-15,20.0
1979-08-16,20.0
1979-08-17,19.0
1979-08-18,19.0
1979-08-19,19.0
1979-08-20,19.0
1979-08-21,14.0
1979-08-22,11.0
1979-08-23,11.0
1979-08-24,11.0
1979-08-25,11.0
1979-08-26,11.0
1979-08-27,11.0
1979-08-28,11.0
1979-08-29,11.0
1979-08-30,11.0
1979-08-31,11.0
1979-09-01,11.0
1979-09-02,11.0
1979-09-03,11.0
1979-09-04,9.3
1979-09-05,8.0
1979-09-06,8.0
1979-09-07,8.0
1979-09-08,8.0
1979-09-09,8.0
1979-09-10,8.0
1979-09-11,8.0
1979-09-12,8.0
1979-09-13,8.0
1979-09-14,8.0
1979-09-15,8.0
1979-09-16,8.0
1979-09-17,8.0
1979-09-18,8.0
1979-09-19,8.0
1979-09-20,8.0
1979-09-21,8.0
1979-09-22,7.8
1979-09-23,7.8
1979-09-24,7.8
1979-09-25,7.8
1979-09-26,8.0
1979-09-27,8.0
1979-09-28,6.5
1979-09-29,8.0
1979-09-30,8.0
1979-10-01,8.0
1979-10-02,8.0
1979-10-03,8.0
1979-10-04,8.0
1979-10-05,4.1
1979-10-06,4.1
1979-10-07,4.1
1979-10-08,7.0
1979-10-09,9.0
1979-10-10,4.2
1979-10-11,0.56
1979-10-12,0.56
1979-10-13,0.71
1979-10-14,0.5700000000000001
1979-10-15,0.5
1979-10-16,0.5
1979-10-17,0.5
1979-10-18,0.5
1979-10-19,2.2
1979-10-20,4.3
1979-10-21,4.3
1979-10-22,4.2
1979-10-23,8.2
1979-10-24,11.0
1979-10-25,11.0
1979-10-26,8.0
1979-10-27,4.2
1979-10-28,4.2
1979-10-29,5.2
1979-10-30,5.9
1979-10-31,5.9
1979-11-01,5.9
1979-11-02,5.9
1979-11-03,5.9
1979-11-04,5.9
1979-11-05,2.8
1979-11-06,0.52
1979-11-07,0.52
1979-11-08,0.52
1979-11-09,0.52
1979-11-10,0.51
1979-11-11,0.51
1979-11-12,0.51
1979-11-13,0.51
1979-11-14,0.52
1979-11-15,0.51
1979-11-16,0.52
1979-11-17,0.52
1979-11-18,0.52
1979-11-19,0.52
1979-11-20,0.52
1979-11-21,0.51
1979-11-22,0.51
1979-11-23,0.51
1979-11-24,0.51
1979-11-25,0.51
1979-11-26,0.51
1979-11-27,0.48
1979-11-28,0.45
1979-11-29,0.45
1979-11-30,0.45
1979-12-01,0.45
1979-12-02,0.45
1979-12-03,0.45
1979-12-04,0.45
1979-12-05,0.45
1979-12-06,0.45
1979-12-07,0.45
1979-12-08,0.45
1979-12-09,0.45
1979-12-10,0.45
1979-12-11,0.45
1979-12-12,0.45
1979-12-13,0.45
1979-12-14,0.45
1979-12-15,0.45
1979-12-16,0.45
1979-12-17,0.45
1979-12-18,0.45
1979-12-19,0.45
1979-12-20,0.45
1979-12-21,0.45
1979-12-22,0.45
1979-12-23,0.45
1979-12-24,0.45
1979-12-25,0.45
1979-12-26,0.45
1979-12-27,0.45
1979-12-28,0.45
1979-12-29,0.45
1979-12-30,0.45
1979-12-31,0.45
1980-01-01,0.45
1980-01-02,0.45
1980-01-03,0.45
1980-01-04,0.45
1980-01-05,0.45
1980-01-06,0.45
1980-01-07,0.45
1980-01-08,0.45
1980-01-09,0.45
1980-01-10,0.45
1980-01-11,0.45
1980-01-12,0.45
1980-01-13,0.45
1980-01-14,0.45
1980-01-15,0.45
1980-01-16,0.45
1980-01-17,0.45
1980-01-18,0.45
1980-01-19,0.45
1980-01-20,0.45
1980-01-21,0.45
1980-01-22,0.45
1980-01-23,0.45
1980-01-24,0.45
1980-01-25,0.45
1980-01-26,0.45
1980-01-27,0.45
1980-01-28,0.46
1980-01-29,0.45
1980-01-30,0.45
1980-01-31,0.45
1980-02-01,0.45
1980-02-02,0.45
1980-02-03,0.45
1980-02-04,0.45
1980-02-05,0.45
1980-02-06,0.45
1980-02-07,0.45
1980-02-08,0.45
1980-02-09,0.45
1980-02-10,0.45
1980-02-11,0.45
1980-02-12,0.45
1980-02-13,0.45
1980-02-14,0.45
1980-02-15,0.45
1980-02-16,0.45
1980-02-17,0.45
1980-02-18,0.45
1980-02-19,0.45
1980-02-20,0.45
1980-02-21,0.45
1980-02-22,0.45
1980-02-23,0.45
1980-02-24,0.45
1980-02-25,0.45
1980-02-26,0.45
1980-02-27,0.45
1980-02-28,0.45
1980-02-29,0.45
1980-03-01,0.45
1980-03-02,0.45
1980-03-03,0.45
1980-03-04,0.51
1980-03-05,0.54
1980-03-06,0.54
1980-03-07,0.54
1980-03-08,0.54
1980-03-09,0.54
1980-03-10,0.56
1980-03-11,0.56
1980-03-12,0.56
1980-03-13,0.56
1980-03-14,0.56
1980-03-15,0.56
1980-03-16,0.56
1980-03-17,0.56
1980-03-18,0.5700000000000001
1980-03-19,0.58
1980-03-20,0.58
1980-03-21,0.58
1980-03-22,0.58
1980-03-23,0.58
1980-03-24,0.59
1980-03-25,0.59
1980-03-26,0.59
1980-03-27,0.59
1980-03-28,0.59
1980-03-29,0.59
1980-03-30,0.59
1980-03-31,0.59
1980-04-01,0.59
1980-04-02,0.59
1980-04-03,0.59
1980-04-04,0.59
1980-04-05,0.59
1980-04-06,0.59
1980-04-07,0.59
1980-04-08,2.0
1980-04-09,7.8
1980-04-10,9.1
1980-04-11,11.0
1980-04-12,9.6
1980-04-13,8.7
1980-04-14,8.7
1980-04-15,7.6
1980-04-16,8.7
1980-04-17,9.6
1980-04-18,11.0
1980-04-19,14.0
1980-04-20,15.0
1980-04-21,17.0
1980-04-22,22.0
1980-04-23,24.0
1980-04-24,30.0
1980-04-25,24.0
1980-04-26,22.0
1980-04-27,20.0
1980-04-28,21.0
1980-04-29,25.0
1980-04-30,28.0
1980-05-01,26.0
1980-05-02,24.0
1980-05-03,25.0
1980-05-04,23.0
1980-05-05,27.0
1980-05-06,32.0
1980-05-07,37.0
1980-05-08,44.0
1980-05-09,42.0
1980-05-10,40.0
1980-05-11,44.0
1980-05-12,39.0
1980-05-13,40.0
1980-05-14,40.0
1980-05-15,38.0
1980-05-16,32.0
1980-05-17,29.0
1980-05-18,29.0
1980-05-19,32.0
1980-05-20,38.0
1980-05-21,44.0
1980-05-22,51.0
1980-05-23,54.0
1980-05-24,54.0
1980-05-25,51.0
1980-05-26,50.0
1980-05-27,45.0
1980-05-28,44.0
1980-05-29,48.0
1980-05-30,45.0
1980-05-31,47.0
1980-06-01,47.0
1980-06-02,45.0
1980-06-03,45.0
1980-06-04,48.0
1980-06-05,51.0
1980-06-06,50.0
1980-06-07,51.0
1980-06-08,58.0
1980-06-09,72.0
1980-06-10,74.0
1980-06-11,79.0
1980-06-12,67.0
1980-06-13,72.0
1980-06-14,69.0
1980-06-15,65.0
1980-06-16,63.0
1980-06-17,63.0
1980-06-18,63.0
1980-06-19,65.0
1980-06-20,60.0
1980-06-21,58.0
1980-06-22,54.0
1980-06-23,51.0
1980-06-24,48.0
1980-06-25,44.0
1980-06-26,42.0
1980-06-27,39.0
1980-06-28,37.0
1980-06-29,34.0
1980-06-30,31.0
1980-07-01,28.0
1980-07-02,26.0
1980-07-03,26.0
1980-07-04,22.0
1980-07-05,22.0
1980-07-06,27.0
1980-07-07,27.0
1980-07-08,27.0
1980-07-09,26.0
1980-07-10,22.0
1980-07-11,19.0
1980-07-12,34.0
1980-07-13,45.0
1980-07-14,45.0
1980-07-15,28.0
1980-07-16,13.0
1980-07-17,12.0
1980-07-18,12.0
1980-07-19,27.0
1980-07-20,33.0
1980-07-21,33.0
1980-07-22,21.0
1980-07-23,13.0
1980-07-24,12.0
1980-07-25,12.0
1980-07-26,12.0
1980-07-27,27.0
1980-07-28,21.0
1980-07-29,27.0
1980-07-30,30.0
1980-07-31,14.0
1980-08-01,14.0
1980-08-02,14.0
1980-08-03,16.0
1980-08-04,18.0
1980-08-05,16.0
1980-08-06,14.0
1980-08-07,16.0
1980-08-08,17.0
1980-08-09,18.0
1980-08-10,19.0
1980-08-11,14.0
1980-08-12,12.0
1980-08-13,18.0
1980-08-14,6.3
1980-08-15,2.0
1980-08-16,2.0
1980-08-17,2.0
1980-08-18,2.0
1980-08-19,2.0
1980-08-20,7.8
1980-08-21,16.0
1980-08-22,16.0
1980-08-23,17.0
1980-08-24,16.0
1980-08-25,16.0
1980-08-26,16.0
1980-08-27,16.0
1980-08-28,16.0
1980-08-29,12.0
1980-08-30,8.7
1980-08-31,8.7
1980-09-01,8.7
1980-09-02,8.7
1980-09-03,11.0
1980-09-04,14.0
1980-09-05,14.0
1980-09-06,14.0
1980-09-07,14.0
1980-09-08,14.0
1980-09-09,14.0
1980-09-10,11.0
1980-09-11,8.7
1980-09-12,8.7
1980-09-13,8.7
1980-09-14,8.7
1980-09-15,8.7
1980-09-16,8.7
1980-09-17,8.7
1980-09-18,8.7
1980-09-19,8.7
1980-09-20,8.7
1980-09-21,9.1
1980-09-22,9.1
1980-09-23,9.1
1980-09-24,8.7
1980-09-25,8.7
1980-09-26,8.7
1980-09-27,8.7
1980-09-28,8.7
1980-09-29,8.7
1980-09-30,7.0
1980-10-01,5.5
1980-10-02,9.3
1980-10-03,13.0
1980-10-04,14.0
1980-10-05,14.0
1980-10-06,11.0
1980-10-07,8.2
1980-10-08,7.8
1980-10-09,7.0
1980-10-10,7.3
1980-10-11,7.3
1980-10-12,7.3
1980-10-13,4.4
1980-10-14,3.6
1980-10-15,14.0
1980-10-16,15.0
1980-10-17,11.0
1980-10-18,7.0
1980-10-19,7.3
1980-10-20,7.8
1980-10-21,8.2
1980-10-22,8.2
1980-10-23,8.2
1980-10-24,8.2
1980-10-25,8.2
1980-10-26,8.2
1980-10-27,4.7
1980-10-28,0.85
1980-10-29,0.85
1980-10-30,1.0
1980-10-31,4.5
1980-11-01,15.0
1980-11-02,15.0
1980-11-03,13.0
1980-11-04,11.0
1980-11-05,9.8
1980-11-06,8.2
1980-11-07,8.2
1980-11-08,8.2
1980-11-09,8.2
1980-11-10,8.2
1980-11-11,4.6
1980-11-12,0.21
1980-11-13,0.21
1980-11-14,0.21
1980-11-15,0.21
1980-11-16,0.21
1980-11-17,0.21
1980-11-18,0.21
1980-11-19,0.21
1980-11-20,0.46
1980-11-21,0.46
1980-11-22,0.46
1980-11-23,0.46
1980-11-24,0.46
1980-11-25,0.46
1980-11-26,0.46
1980-11-27,0.46
1980-11-28,0.46
1980-11-29,0.46
1980-11-30,0.46
1980-12-01,0.49
1980-12-02,0.5
1980-12-03,0.5
1980-12-04,0.5
1980-12-05,0.5
1980-12-06,0.5
1980-12-07,0.5
1980-12-08,0.5
1980-12-09,0.5
1980-12-10,0.5
1980-12-11,0.5
1980-12-12,0.5
1980-12-13,0.5
1980-12-14,0.5
1980-12-15,0.5
1980-12-16,0.51
1980-12-17,0.51
1980-12-18,0.51
1980-12-19,0.51
1980-12-20,0.51
1980-12-21,0.51
1980-12-22,0.5
1980-12-23,0.5
1980-12-24,0.5
1980-12-25,0.5
1980-12-26,0.5
1980-12-27,0.5
1980-12-28,0.5
1980-12-29,0.5
1980-12-30,0.5
1980-12-31,0.5
1981-01-01,0.5
1981-01-02,0.5
1981-01-03,0.5
1981-01-04,0.5
1981-01-05,0.5
1981-01-06,0.5
1981-01-07,0.5
1981-01-08,0.5
1981-01-09,0.5
1981-01-10,0.5
1981-01-11,0.5
1981-01-12,0.51
1981-01-13,0.55
1981-01-14,0.61
1981-01-15,0.61
1981-01-16,0.61
1981-01-17,0.61
1981-01-18,0.61
1981-01-19,0.5
1981-01-20,0.44
1981-01-21,0.44
1981-01-22,0.44
1981-01-23,0.44
1981-01-24,0.44
1981-01-25,0.44
1981-01-26,0.44
1981-01-27,0.44
1981-01-28,0.43
1981-01-29,0.43
1981-01-30,0.43
1981-01-31,0.43
1981-02-01,0.43
1981-02-02,0.43
1981-02-03,0.47000000000000003
1981-02-04,0.5
1981-02-05,0.5
1981-02-06,0.5
1981-02-07,0.5
1981-02-08,0.5
1981-02-09,0.5
1981-02-10,0.55
1981-02-11,0.61
1981-02-12,0.61
1981-02-13,0.61
1981-02-14,0.61
1981-02-15,0.61
1981-02-16,0.55
1981-02-17,0.51
1981-02-18,0.51
1981-02-19,0.51
1981-02-20,0.51
1981-02-21,0.51
1981-02-22,0.51
1981-02-23,0.5
1981-02-24,0.5
1981-02-25,0.5
1981-02-26,0.5
1981-02-27,0.5
1981-02-28,0.5
1981-03-01,0.5
1981-03-02,0.5
1981-03-03,0.5
1981-03-04,0.5
1981-03-05,0.5
1981-03-06,0.5
1981-03-07,0.5
1981-03-08,0.5
1981-03-09,0.5
1981-03-10,0.5
1981-03-11,0.5
1981-03-12,0.5
1981-03-13,0.5
1981-03-14,0.5
1981-03-15,0.5
1981-03-16,0.5
1981-03-17,0.5
1981-03-18,0.5
1981-03-19,0.5
1981-03-20,0.5
1981-03-21,0.51
1981-03-22,0.51
1981-03-23,0.51
1981-03-24,0.51
1981-03-25,0.51
1981-03-26,0.51
1981-03-27,0.51
1981-03-28,0.5
1981-03-29,0.5
1981-03-30,0.5
1981-03-31,0.5
1981-04-01,0.5
1981-04-02,0.5
1981-04-03,0.5
1981-04-04,0.5
1981-04-05,0.5
1981-04-06,0.5
1981-04-07,0.5
1981-04-08,0.5
1981-04-09,0.46
1981-04-10,0.42
1981-04-11,0.42
1981-04-12,0.42
1981-04-13,0.41000000000000003
1981-04-14,0.41000000000000003
1981-04-15,0.35000000000000003
1981-04-16,0.30000000000000004
1981-04-17,0.30000000000000004
1981-04-18,0.30000000000000004
1981-04-19,0.30000000000000004
1981-04-20,0.27
1981-04-21,0.24
1981-04-22,0.24
1981-04-23,0.24
1981-04-24,0.24
1981-04-25,2.9
1981-04-26,6.4
1981-04-27,6.4
1981-04-28,6.5
1981-04-29,7.8
1981-04-30,8.8
1981-05-01,11.0
1981-05-02,3.6
1981-05-03,0.13
1981-05-04,2.3
1981-05-05,11.0
1981-05-06,11.0
1981-05-07,11.0
1981-05-08,11.0
1981-05-09,11.0
1981-05-10,10.0
1981-05-11,10.0
1981-05-12,7.6
1981-05-13,9.3
1981-05-14,11.0
1981-05-15,11.0
1981-05-16,12.0
1981-05-17,12.0
1981-05-18,12.0
1981-05-19,11.0
1981-05-20,11.0
1981-05-21,11.0
1981-05-22,11.0
1981-05-23,11.0
1981-05-24,11.0
1981-05-25,11.0
1981-05-26,11.0
1981-05-27,11.0
1981-05-28,12.0
1981-05-29,9.6
1981-05-30,9.5
1981-05-31,9.5
1981-06-01,9.5
1981-06-02,8.5
1981-06-03,7.0
1981-06-04,8.5
1981-06-05,9.0
1981-06-06,9.0
1981-06-07,9.0
1981-06-08,12.0
1981-06-09,13.0
1981-06-10,13.0
1981-06-11,13.0
1981-06-12,13.0
1981-06-13,13.0
1981-06-14,13.0
1981-06-15,13.0
1981-06-16,13.0
1981-06-17,14.0
1981-06-18,14.0
1981-06-19,13.0
1981-06-20,13.0
1981-06-21,13.0
1981-06-22,14.0
1981-06-23,15.0
1981-06-24,14.0
1981-06-25,14.0
1981-06-26,14.0
1981-06-27,13.0
1981-06-28,13.0
1981-06-29,13.0
1981-06-30,13.0
1981-07-01,13.0
1981-07-02,13.0
1981-07-03,13.0
1981-07-04,13.0
1981-07-05,13.0
1981-07-06,13.0
1981-07-07,22.0
1981-07-08,29.0
1981-07-09,28.0
1981-07-10,22.0
1981-07-11,15.0
1981-07-12,15.0
1981-07-13,15.0
1981-07-14,15.0
1981-07-15,15.0
1981-07-16,15.0
1981-07-17,15.0
1981-07-18,15.0
1981-07-19,15.0
1981-07-20,15.0
1981-07-21,15.0
1981-07-22,16.0
1981-07-23,16.0
1981-07-24,16.0
1981-07-25,16.0
1981-07-26,16.0
1981-07-27,16.0
1981-07-28,16.0
1981-07-29,15.0
1981-07-30,10.0
1981-07-31,6.0
1981-08-01,3.9
1981-08-02,2.3
1981-08-03,2.3
1981-08-04,2.3
1981-08-05,0.81
1981-08-06,1.2
1981-08-07,4.0
1981-08-08,21.0
1981-08-09,21.0
1981-08-10,8.1
1981-08-11,0.66
1981-08-12,3.1
1981-08-13,4.3
1981-08-14,3.2
1981-08-15,3.2
1981-08-16,3.2
1981-08-17,3.2
1981-08-18,3.3
1981-08-19,2.4
1981-08-20,2.4
1981-08-21,2.4
1981-08-22,2.4
1981-08-23,2.4
1981-08-24,2.4
1981-08-25,2.4
1981-08-26,2.4
1981-08-27,2.4
1981-08-28,1.8
1981-08-29,4.9
1981-08-30,8.1
1981-08-31,8.1
1981-09-01,8.1
1981-09-02,7.6
1981-09-03,7.1
1981-09-04,16.0
1981-09-05,10.0
1981-09-06,12.0
1981-09-07,13.0
1981-09-08,13.0
1981-09-09,9.1
1981-09-10,5.6
1981-09-11,5.6
1981-09-12,5.6
1981-09-13,5.6
1981-09-14,5.6
1981-09-15,5.6
1981-09-16,5.6
1981-09-17,5.6
1981-09-18,5.6
1981-09-19,5.6
1981-09-20,5.6
1981-09-21,5.6
1981-09-22,5.6
1981-09-23,5.6
1981-09-24,5.5
1981-09-25,5.5
1981-09-26,5.5
1981-09-27,5.5
1981-09-28,5.5
1981-09-29,5.5
1981-09-30,5.5
1981-10-01,5.4
1981-10-02,5.4
1981-10-03,5.4
1981-10-04,5.4
1981-10-05,5.4
1981-10-06,4.0
1981-10-07,4.0
1981-10-08,4.0
1981-10-09,4.0
1981-10-10,4.0
1981-10-11,4.0
1981-10-12,4.0
1981-10-13,1.9
1981-10-14,2.8
1981-10-15,5.3
1981-10-16,5.3
1981-10-17,5.3
1981-10-18,5.3
1981-10-19,5.3
1981-10-20,5.3
1981-10-21,3.4
1981-10-22,2.8
1981-10-23,2.8
1981-10-24,2.8
1981-10-25,2.8
1981-10-26,4.0
1981-10-27,5.3
1981-10-28,5.3
1981-10-29,5.3
1981-10-30,2.5
1981-10-31,0.5
1981-11-01,0.5
1981-11-02,0.5
1981-11-03,0.5
1981-11-04,0.5
1981-11-05,0.5
1981-11-06,0.5
1981-11-07,0.5
1981-11-08,0.5
1981-11-09,0.5
1981-11-10,0.5
1981-11-11,0.5
1981-11-12,0.5
1981-11-13,4.0
1981-11-14,6.7
1981-11-15,6.7
1981-11-16,6.7
1981-11-17,6.7
1981-11-18,6.7
1981-11-19,6.7
1981-11-20,4.3
1981-11-21,2.5
1981-11-22,2.5
1981-11-23,2.5
1981-11-24,2.5
1981-11-25,2.5
1981-11-26,2.5
1981-11-27,2.5
1981-11-28,2.5
1981-11-29,2.5
1981-11-30,2.4
1981-12-01,2.5
1981-12-02,2.5
1981-12-03,2.5
1981-12-04,1.6
1981-12-05,0.99
1981-12-06,0.99
1981-12-07,0.99
1981-12-08,0.99
1981-12-09,0.99
1981-12-10,0.99
1981-12-11,0.99
1981-12-12,0.99
1981-12-13,0.99
1981-12-14,0.76
1981-12-15,0.49
1981-12-16,0.48
1981-12-17,0.48
1981-12-18,0.48
1981-12-19,0.48
1981-12-20,0.48
1981-12-21,0.48
1981-12-22,0.48
1981-12-23,0.48
1981-12-24,0.48
1981-12-25,0.48
1981-12-26,0.48
1981-12-27,0.48
1981-12-28,0.48
1981-12-29,0.48
1981-12-30,0.48
1981-12-31,0.48
1982-01-01,0.49
1982-01-02,0.49
1982-01-03,0.49
1982-01-04,0.49
1982-01-05,0.49
1982-01-06,0.49
1982-01-07,0.49
1982-01-08,0.49
1982-01-09,0.49
1982-01-10,0.49
1982-01-11,0.49
1982-01-12,0.49
1982-01-13,0.49
1982-01-14,0.49
1982-01-15,0.49
1982-01-16,0.49
1982-01-17,0.49
1982-01-18,0.49
1982-01-19,0.49
1982-01-20,0.49
1982-01-21,0.49
1982-01-22,0.49
1982-01-23,0.49
1982-01-24,0.49
1982-01-25,0.49
1982-01-26,0.49
1982-01-27,0.49
1982-01-28,0.49
1982-01-29,0.49
1982-01-30,0.49
1982-01-31,0.49
1982-02-01,0.49
1982-02-02,0.49
1982-02-03,0.49
1982-02-04,0.49
1982-02-05,0.49
1982-02-06,0.49
1982-02-07,0.49
1982-02-08,0.49
1982-02-09,0.49
1982-02-10,0.49
1982-02-11,0.49
1982-02-12,0.49
1982-02-13,0.49
1982-02-14,0.49
1982-02-15,0.49
1982-02-16,0.49
1982-02-17,0.49
1982-02-18,0.49
1982-02-19,0.49
1982-02-20,0.49
1982-02-21,0.49
1982-02-22,0.49
1982-02-23,0.49
1982-02-24,0.49
1982-02-25,0.49
1982-02-26,0.49
1982-02-27,0.49
1982-02-28,0.49
1982-03-01,0.49
1982-03-02,0.49
1982-03-03,0.49
1982-03-04,0.49
1982-03-05,0.49
1982-03-06,0.49
1982-03-07,0.49
1982-03-08,0.49
1982-03-09,0.49
1982-03-10,0.49
1982-03-11,0.49
1982-03-12,0.49
1982-03-13,0.49
1982-03-14,0.49
1982-03-15,0.49
1982-03-16,0.49
1982-03-17,0.49
1982-03-18,0.49
1982-03-19,0.49
1982-03-20,0.49
1982-03-21,0.49
1982-03-22,0.49
1982-03-23,0.49
1982-03-24,0.49
1982-03-25,0.49
1982-03-26,0.49
1982-03-27,0.49
1982-03-28,0.49
1982-03-29,0.49
1982-03-30,0.49
1982-03-31,0.49
1982-04-01,0.49
1982-04-02,0.49
1982-04-03,0.49
1982-04-04,0.49
1982-04-05,0.49
1982-04-06,0.49
1982-04-07,0.49
1982-04-08,0.49
1982-04-09,0.49
1982-04-10,0.49
1982-04-11,0.49
1982-04-12,0.49
1982-04-13,0.49
1982-04-14,0.49
1982-04-15,3.1
1982-04-16,5.4
1982-04-17,5.4
1982-04-18,5.4
1982-04-19,5.4
1982-04-20,5.4
1982-04-21,5.4
1982-04-22,5.3
1982-04-23,5.3
1982-04-24,5.3
1982-04-25,5.3
1982-04-26,5.3
1982-04-27,5.3
1982-04-28,5.3
1982-04-29,14.0
1982-04-30,22.0
1982-05-01,20.0
1982-05-02,20.0
1982-05-03,20.0
1982-05-04,20.0
1982-05-05,11.0
1982-05-06,8.8
1982-05-07,10.0
1982-05-08,6.0
1982-05-09,6.0
1982-05-10,6.0
1982-05-11,6.0
1982-05-12,10.0
1982-05-13,14.0
1982-05-14,14.0
1982-05-15,14.0
1982-05-16,14.0
1982-05-17,13.0
1982-05-18,13.0
1982-05-19,13.0
1982-05-20,13.0
1982-05-21,13.0
1982-05-22,13.0
1982-05-23,13.0
1982-05-24,14.0
1982-05-25,15.0
1982-05-26,15.0
1982-05-27,15.0
1982-05-28,15.0
1982-05-29,15.0
1982-05-30,15.0
1982-05-31,15.0
1982-06-01,15.0
1982-06-02,15.0
1982-06-03,15.0
1982-06-04,15.0
1982-06-05,15.0
1982-06-06,15.0
1982-06-07,18.0
1982-06-08,21.0
1982-06-09,22.0
1982-06-10,24.0
1982-06-11,21.0
1982-06-12,18.0
1982-06-13,18.0
1982-06-14,20.0
1982-06-15,20.0
1982-06-16,23.0
1982-06-17,24.0
1982-06-18,24.0
1982-06-19,24.0
1982-06-20,24.0
1982-06-21,25.0
1982-06-22,25.0
1982-06-23,25.0
1982-06-24,25.0
1982-06-25,25.0
1982-06-26,25.0
1982-06-27,25.0
1982-06-28,25.0
1982-06-29,25.0
1982-06-30,25.0
1982-07-01,25.0
1982-07-02,12.0
1982-07-03,4.1
1982-07-04,4.2
1982-07-05,4.1
1982-07-06,4.1
1982-07-07,4.1
1982-07-08,4.1
1982-07-09,4.1
1982-07-10,4.1
1982-07-11,4.1
1982-07-12,5.5
1982-07-13,5.5
1982-07-14,5.5
1982-07-15,5.5
1982-07-16,5.5
1982-07-17,5.1
1982-07-18,5.1
1982-07-19,5.1
1982-07-20,5.1
1982-07-21,5.1
1982-07-22,5.2
1982-07-23,5.1
1982-07-24,5.1
1982-07-25,5.1
1982-07-26,4.4
1982-07-27,3.6
1982-07-28,3.6
1982-07-29,3.6
1982-07-30,3.6
1982-07-31,3.6
1982-08-01,3.8
1982-08-02,3.8
1982-08-03,3.9
1982-08-04,3.8
1982-08-05,3.8
1982-08-06,3.9
1982-08-07,3.9
1982-08-08,3.9
1982-08-09,3.9
1982-08-10,3.9
1982-08-11,3.9
1982-08-12,3.9
1982-08-13,3.9
1982-08-14,3.9
1982-08-15,3.9
1982-08-16,4.2
1982-08-17,4.5
1982-08-18,13.0
1982-08-19,22.0
1982-08-20,23.0
1982-08-21,31.0
1982-08-22,29.0
1982-08-23,23.0
1982-08-24,21.0
1982-08-25,16.0
1982-08-26,14.0
1982-08-27,18.0
1982-08-28,21.0
1982-08-29,21.0
1982-08-30,21.0
1982-08-31,21.0
1982-09-01,21.0
1982-09-02,13.0
1982-09-03,12.0
1982-09-04,8.7
1982-09-05,8.7
1982-09-06,8.8
1982-09-07,9.1
1982-09-08,8.9
1982-09-09,8.4
1982-09-10,8.5
1982-09-11,8.7
1982-09-12,8.7
1982-09-13,8.7
1982-09-14,8.7
1982-09-15,8.7
1982-09-16,8.7
1982-09-17,8.7
1982-09-18,3.4
1982-09-19,0.61
1982-09-20,0.61
1982-09-21,0.61
1982-09-22,0.64
1982-09-23,0.64
1982-09-24,0.64
1982-09-25,0.65
1982-09-26,0.66
1982-09-27,0.66
1982-09-28,0.67
1982-09-29,0.67
1982-09-30,0.67
1982-10-01,0.66
1982-10-02,0.67
1982-10-03,0.67
1982-10-04,0.68
1982-10-05,0.68
1982-10-06,0.68
1982-10-07,0.68
1982-10-08,0.68
1982-10-09,0.68
1982-10-10,0.68
1982-10-11,5.2
1982-10-12,11.0
1982-10-13,11.0
1982-10-14,11.0
1982-10-15,11.0
1982-10-16,12.0
1982-10-17,12.0
1982-10-18,9.9
1982-10-19,3.1
1982-10-20,3.1
1982-10-21,3.1
1982-10-22,3.1
1982-10-23,3.1
1982-10-24,4.7
1982-10-25,8.2
1982-10-26,8.2
1982-10-27,8.2
1982-10-28,8.2
1982-10-29,8.2
1982-10-30,8.2
1982-10-31,8.2
1982-11-01,8.2
1982-11-02,8.2
1982-11-03,8.2
1982-11-04,8.2
1982-11-05,8.2
1982-11-06,8.2
1982-11-07,3.5
1982-11-08,0.53
1982-11-09,0.53
1982-11-10,0.53
1982-11-11,0.53
1982-11-12,0.53
1982-11-13,0.53
1982-11-14,0.53
1982-11-15,0.53
1982-11-16,0.53
1982-11-17,0.53
1982-11-18,0.53
1982-11-19,0.53
1982-11-20,0.53
1982-11-21,0.53
1982-11-22,0.53
1982-11-23,0.53
1982-11-24,0.53
1982-11-25,0.53
1982-11-26,0.53
1982-11-27,0.53
1982-11-28,0.53
1982-11-29,0.53
1982-11-30,0.53
1982-12-01,1.5
1982-12-02,5.8
1982-12-03,5.8
1982-12-04,5.8
1982-12-05,5.8
1982-12-06,5.8
1982-12-07,5.8
1982-12-08,5.8
1982-12-09,5.8
1982-12-10,5.8
1982-12-11,5.8
1982-12-12,5.8
1982-12-13,5.8
1982-12-14,5.8
1982-12-15,5.8
1982-12-16,5.8
1982-12-17,4.4
1982-12-18,3.0
1982-12-19,3.0
1982-12-20,3.0
1982-12-21,3.0
1982-12-22,1.6
1982-12-23,0.53
1982-12-24,0.53
1982-12-25,0.53
1982-12-26,0.53
1982-12-27,2.2
1982-12-28,4.0
1982-12-29,4.0
1982-12-30,4.0
1982-12-31,4.0
1983-01-01,0.6000000000000001
1983-01-02,0.6000000000000001
1983-01-03,1.6
1983-01-04,2.4
1983-01-05,2.4
1983-01-06,1.8
1983-01-07,1.0
1983-01-08,1.0
1983-01-09,1.0
1983-01-10,3.0
1983-01-11,4.7
1983-01-12,4.7
1983-01-13,4.7
1983-01-14,5.4
1983-01-15,5.9
1983-01-16,5.9
1983-01-17,5.9
1983-01-18,5.9
1983-01-19,5.9
1983-01-20,5.9
1983-01-21,5.9
1983-01-22,5.9
1983-01-23,5.9
1983-01-24,3.8
1983-01-25,0.66
1983-01-26,0.66
1983-01-27,0.66
1983-01-28,1.7000000000000002
1983-01-29,2.4
1983-01-30,2.4
1983-01-31,2.4
1983-02-01,2.4
1983-02-02,2.4
1983-02-03,2.4
1983-02-04,2.4
1983-02-05,2.4
1983-02-06,2.4
1983-02-07,2.4
1983-02-08,2.4
1983-02-09,2.4
1983-02-10,2.4
1983-02-11,2.4
1983-02-12,2.4
1983-02-13,2.4
1983-02-14,3.1
1983-02-15,4.0
1983-02-16,4.0
1983-02-17,4.0
1983-02-18,4.0
1983-02-19,4.0
1983-02-20,4.0
1983-02-21,4.0
1983-02-22,4.0
1983-02-23,4.0
1983-02-24,4.0
1983-02-25,4.0